Location: Biharia
(46.4333°N, 22.8000°E)
Time: 00:11:24
(UTC+00:00)

Meteor 1-21 Rocket - Pass Details

Date: 16 October 2021
Orbit: 834 x 907 km, 81.2° (Epoch: 05 December)

Event Time Altitude Azimuth Distance (km) Brightness Sun altitude
Rises 16:32:49 0° 351° (N) 3,488 7.5 -9.8°
Reaches altitude 10° 16:35:18 10° 356° (N) 2,556 6.7 -10.2°
Maximum altitude 16:41:03 58° 75° (ENE) 1,035 4.4 -11.2°
Drops below altitude 10° 16:46:51 10° 155° (SSE) 2,575 6.5 -12.2°
Sets 16:49:21 0° 159° (SSE) 3,516 7.2 -12.6°
